This is the latest recevied weather packets stored in our database for station/object KT5AL. If no packets are shown the sender has not sent any weather packets the latest 10 day(s).
| Time | Temp. | Humidity | Pressure | Rain* | Wind** | Luminosity | Snow |
|---|---|---|---|---|---|---|---|
| 1777730408 | 15° C | 90% | 1022.6 hPa | 0 mm | - | - | - |
| 1777730105 | 14.44° C | 92% | 1023.2 hPa | 0 mm | - | - | - |
| 1777729808 | 14.44° C | 95% | 1023.2 hPa | 0 mm | - | - | - |
| 1777729505 | 13.89° C | 93% | 1023.6 hPa | 0 mm | - | - | - |
| 1777729208 | 13.89° C | 94% | 1023.6 hPa | 0 mm | - | - | - |
| 1777728905 | 13.89° C | 96% | 1023.9 hPa | 0 mm | - | - | - |
| 1777728608 | 13.33° C | 100% | 1023.9 hPa | 0 mm | - | - | - |
| 1777728305 | 13.33° C | 100% | 1024.6 hPa | 0 mm | - | - | - |
| 1777728008 | 12.78° C | 100% | 1024.6 hPa | 0 mm | - | - | - |
| 1777727705 | 12.22° C | 100% | 1024.6 hPa | 0 mm | - | - | - |
| 1777727408 | 12.22° C | 100% | 1024.6 hPa | 0 mm | - | - | - |
| 1777727105 | 11.67° C | 100% | 1024.6 hPa | 0 mm | - | - | - |
| 1777726808 | 11.11° C | 100% | 1024.6 hPa | 0 mm | - | - | - |
| 1777726505 | 11.11° C | 100% | 1024.6 hPa | 0 mm | - | - | - |
| 1777726210 | 10.56° C | 100% | 1024.6 hPa | 0 mm | - | - | - |
| 1777725907 | 10.56° C | 100% | 1024.3 hPa | 0 mm | - | - | - |
| 1777725604 | 10° C | 100% | 1024.3 hPa | 0 mm | - | - | - |
| 1777725307 | 9.44° C | 100% | 1024.6 hPa | 0 mm | - | - | - |
| 1777725004 | 9.44° C | 100% | 1024.6 hPa | 0 mm | - | - | - |
| 1777724733 | 9.44° C | 100% | 1024.6 hPa | 0 mm | - | - | - |
| 1777724404 | 9.44° C | 100% | 1024.6 hPa | 0 mm | - | - | - |
| 1777724107 | 9.44° C | 100% | 1024.6 hPa | 0 mm | - | - | - |
| 1777723804 | 8.89° C | 100% | 1024.6 hPa | 0 mm | - | - | - |
| 1777723507 | 8.89° C | 100% | 1024.6 hPa | 0 mm | - | - | - |
| 1777723204 | 8.89° C | 100% | 1024.6 hPa | 0 mm | - | - | - |
* Rain latest hour (hover to see other rain measurements)
** Current wind speed in m/s (hover to see current wind gust speed)